When you browse on this site, cookies collect data to enhance your experience and personalize the content and advertising you see.
Visit our Privacy Policy to learn more. By continuing to use the site, you agree to this use of cookies and data.
  • In Spain
  • List of Countries
  • For 7 days
  • Water Temperature
  • Weather Map
  • Weather Widgets
  • user-avatar
    Login

    Hourly Weather Vinh

    Today, 28 May, Thursday

    Time Temperature Precipitation Wind Pressure Humidity
    00:00 +25°C° 0.1 mm 0 mps 746 mmHg 95%
    01:00 +25°C° 0 mm 0 mps 746 mmHg 94%
    02:00 +25°C° 0 mm 0 mps 745 mmHg 95%
    03:00 +24°C° 0 mm 0 mps 745 mmHg 95%
    04:00 +24°C° 0 mm 0 mps 745 mmHg 95%
    05:00 +25°C° 0 mm 0 mps 745 mmHg 94%
    06:00 +26°C° 0 mm 0 mps 745 mmHg 92%
    07:00 +26°C° 0 mm 0 mps 746 mmHg 88%
    08:00 +27°C° 0.3 mm 0 mps 746 mmHg 84%
    09:00 +28°C° 0.3 mm 0 mps 746 mmHg 79%
    10:00 +30°C° 0.3 mm 0 mps 747 mmHg 75%
    11:00 +29°C° 0.1 mm 0 mps 746 mmHg 76%
    12:00 +29°C° 0.1 mm 0 mps 745 mmHg 76%
    13:00 +30°C° 0 mm 0 mps 745 mmHg 77%
    14:00 +32°C° 0.2 mm 1 mps 745 mmHg 74%
    15:00 +33°C° 0.2 mm 1 mps 744 mmHg 71%
    16:00 +34°C° 0.2 mm 2 mps 743 mmHg 68%
    17:00 +31°C° 0.1 mm 1 mps 743 mmHg 76%
    18:00 +29°C° 0.1 mm 1 mps 744 mmHg 84%
    19:00 +28°C° 0.1 mm 1 mps 744 mmHg 92%
    20:00 +26°C° 0.7 mm 0 mps 745 mmHg 93%
    21:00 +25°C° 0.7 mm 0 mps 745 mmHg 94%
    22:00 +25°C° 0.7 mm 0 mps 746 mmHg 95%
    23:00 +25°C° 0.1 mm 0 mps 746 mmHg 94%

    Tomorrow, 29 May, Friday

    Time Temperature Precipitation Wind Pressure Humidity
    00:00 +25°C° 0.1 mm 0 mps 745 mmHg 94%
    01:00 +25°C° 0.1 mm 0 mps 745 mmHg 93%
    02:00 +25°C° 0.1 mm 0 mps 745 mmHg 93%
    03:00 +25°C° 0.1 mm 0 mps 744 mmHg 92%
    04:00 +27°C° 0.1 mm 1 mps 744 mmHg 92%
    05:00 +25°C° 0 mm 0 mps 744 mmHg 91%
    06:00 +25°C° 0 mm 0 mps 745 mmHg 90%
    07:00 +26°C° 0 mm 0 mps 745 mmHg 90%
    08:00 +27°C° 0.1 mm 0 mps 745 mmHg 86%
    09:00 +28°C° 0.1 mm 0 mps 745 mmHg 82%
    10:00 +28°C° 0.1 mm 0 mps 746 mmHg 78%
    11:00 +32°C° 0.4 mm 1 mps 745 mmHg 72%
    12:00 +33°C° 0.4 mm 1 mps 745 mmHg 67%
    13:00 +35°C° 0.4 mm 1 mps 744 mmHg 62%
    14:00 +35°C° 0.1 mm 1 mps 744 mmHg 61%
    15:00 +35°C° 0.1 mm 1 mps 743 mmHg 60%
    16:00 +34°C° 0.1 mm 1 mps 743 mmHg 59%
    17:00 +33°C° 0 mm 1 mps 743 mmHg 66%
    18:00 +31°C° 0 mm 1 mps 744 mmHg 72%
    19:00 +30°C° 0 mm 1 mps 744 mmHg 78%
    20:00 +29°C° 0.1 mm 1 mps 745 mmHg 81%
    21:00 +29°C° 0.1 mm 1 mps 745 mmHg 83%
    22:00 +28°C° 0.1 mm 1 mps 745 mmHg 85%
    23:00 +28°C° 0 mm 1 mps 745 mmHg 85%

    Day after tomorrow, 30 May, Saturday

    Time Temperature Precipitation Wind Pressure Humidity
    00:00 +28°C° 0 mm 1 mps 745 mmHg 84%
    01:00 +28°C° 0 mm 1 mps 745 mmHg 83%
    02:00 +28°C° 0 mm 1 mps 744 mmHg 83%
    03:00 +28°C° 0 mm 1 mps 744 mmHg 83%
    04:00 +28°C° 0 mm 1 mps 744 mmHg 83%
    05:00 +28°C° 0.1 mm 1 mps 744 mmHg 83%
    06:00 +29°C° 0.1 mm 1 mps 745 mmHg 83%
    07:00 +29°C° 0.1 mm 1 mps 746 mmHg 83%
    08:00 +31°C° 0 mm 1 mps 746 mmHg 76%
    09:00 +32°C° 0 mm 1 mps 746 mmHg 69%
    10:00 +34°C° 0 mm 1 mps 746 mmHg 63%
    11:00 +34°C° 0.2 mm 2 mps 746 mmHg 64%
    12:00 +34°C° 0.2 mm 3 mps 746 mmHg 65%
    13:00 +33°C° 0.2 mm 4 mps 745 mmHg 66%
    14:00 +34°C° 0 mm 2 mps 744 mmHg 66%
    15:00 +34°C° 0 mm 2 mps 744 mmHg 65%
    16:00 +34°C° 0 mm 2 mps 743 mmHg 64%
    17:00 +32°C° 0 mm 2 mps 743 mmHg 68%
    18:00 +31°C° 0 mm 2 mps 743 mmHg 72%
    19:00 +30°C° 0 mm 2 mps 743 mmHg 75%
    20:00 +29°C° 0 mm 2 mps 744 mmHg 75%
    21:00 +29°C° 0 mm 2 mps 745 mmHg 76%
    22:00 +29°C° 0 mm 2 mps 746 mmHg 76%
    23:00 +29°C° 0 mm 2 mps 745 mmHg 76%

    31 May, Sunday

    Time Temperature Precipitation Wind Pressure Humidity
    00:00 +29°C° 0 mm 2 mps 745 mmHg 76%
    01:00 +29°C° 0 mm 2 mps 745 mmHg 76%
    02:00 +28°C° 0 mm 2 mps 745 mmHg 76%
    03:00 +28°C° 0 mm 2 mps 745 mmHg 75%
    04:00 +28°C° 0 mm 2 mps 745 mmHg 75%
    05:00 +28°C° 0 mm 2 mps 745 mmHg 75%
    06:00 +28°C° 0 mm 2 mps 745 mmHg 76%
    07:00 +28°C° 0 mm 2 mps 745 mmHg 76%
    08:00 +30°C° 0 mm 2 mps 745 mmHg 70%
    09:00 +32°C° 0 mm 2 mps 746 mmHg 65%
    10:00 +35°C° 0 mm 2 mps 746 mmHg 60%
    11:00 +36°C° 0 mm 2 mps 745 mmHg 57%
    12:00 +37°C° 0 mm 2 mps 745 mmHg 53%
    13:00 +38°C° 0 mm 3 mps 744 mmHg 50%
    14:00 +38°C° 0 mm 2 mps 743 mmHg 51%
    15:00 +38°C° 0 mm 2 mps 743 mmHg 53%
    16:00 +37°C° 0 mm 2 mps 742 mmHg 54%
    17:00 +35°C° 0 mm 2 mps 742 mmHg 60%
    18:00 +34°C° 0 mm 3 mps 743 mmHg 67%
    19:00 +31°C° 0 mm 3 mps 743 mmHg 73%
    20:00 +30°C° 0 mm 3 mps 743 mmHg 75%
    21:00 +30°C° 0 mm 2 mps 744 mmHg 76%
    22:00 +30°C° 0 mm 2 mps 744 mmHg 77%
    23:00 +29°C° 0 mm 2 mps 744 mmHg 78%

    1 June, Monday

    Time Temperature Precipitation Wind Pressure Humidity
    00:00 +29°C° 0 mm 2 mps 744 mmHg 78%
    01:00 +29°C° 0 mm 2 mps 743 mmHg 78%
    02:00 +29°C° 0 mm 2 mps 743 mmHg 78%
    03:00 +29°C° 0 mm 2 mps 743 mmHg 78%
    04:00 +29°C° 0 mm 2 mps 743 mmHg 77%
    05:00 +30°C° 0 mm 2 mps 744 mmHg 76%
    06:00 +30°C° 0 mm 2 mps 744 mmHg 75%
    07:00 +31°C° 0 mm 2 mps 744 mmHg 73%
    08:00 +34°C° 0 mm 2 mps 744 mmHg 66%
    09:00 +36°C° 0 mm 2 mps 745 mmHg 58%
    10:00 +38°C° 0 mm 2 mps 745 mmHg 51%
    11:00 +39°C° 0 mm 2 mps 744 mmHg 49%
    12:00 +39°C° 0 mm 3 mps 744 mmHg 46%
    13:00 +40°C° 0 mm 3 mps 743 mmHg 44%
    14:00 +39°C° 0.1 mm 3 mps 742 mmHg 46%
    15:00 +38°C° 0.1 mm 3 mps 742 mmHg 48%
    16:00 +38°C° 0.1 mm 3 mps 741 mmHg 51%
    17:00 +36°C° 0 mm 3 mps 742 mmHg 56%
    18:00 +34°C° 0 mm 3 mps 742 mmHg 62%
    19:00 +31°C° 0 mm 2 mps 742 mmHg 68%
    20:00 +31°C° 0.1 mm 2 mps 742 mmHg 69%
    21:00 +30°C° 0.1 mm 2 mps 743 mmHg 71%
    22:00 +30°C° 0.1 mm 2 mps 744 mmHg 73%
    23:00 +30°C° 0.2 mm 2 mps 743 mmHg 74%

    2 June, Tuesday

    Time Temperature Precipitation Wind Pressure Humidity
    00:00 +30°C° 0.2 mm 2 mps 743 mmHg 75%
    01:00 +29°C° 0.2 mm 2 mps 743 mmHg 75%
    02:00 +29°C° 0 mm 2 mps 743 mmHg 75%
    03:00 +29°C° 0 mm 1 mps 742 mmHg 74%
    04:00 +29°C° 0 mm 1 mps 742 mmHg 73%
    05:00 +30°C° 0 mm 1 mps 742 mmHg 73%
    06:00 +30°C° 0 mm 1 mps 743 mmHg 73%
    07:00 +30°C° 0 mm 1 mps 743 mmHg 72%
    08:00 +31°C° 0 mm 2 mps 743 mmHg 68%
    09:00 +34°C° 0 mm 2 mps 743 mmHg 64%
    10:00 +35°C° 0 mm 2 mps 744 mmHg 60%
    11:00 +36°C° 0.1 mm 2 mps 743 mmHg 57%
    12:00 +37°C° 0.1 mm 2 mps 743 mmHg 53%
    13:00 +38°C° 0.1 mm 2 mps 742 mmHg 50%
    14:00 +37°C° 0.1 mm 3 mps 741 mmHg 51%
    15:00 +37°C° 0.1 mm 3 mps 741 mmHg 53%
    16:00 +36°C° 0.1 mm 4 mps 740 mmHg 55%
    17:00 +35°C° 0 mm 3 mps 741 mmHg 60%
    18:00 +33°C° 0 mm 3 mps 741 mmHg 65%
    19:00 +30°C° 0 mm 3 mps 741 mmHg 71%
    20:00 +30°C° 0.1 mm 2 mps 742 mmHg 71%
    21:00 +30°C° 0.1 mm 2 mps 742 mmHg 71%
    22:00 +29°C° 0.1 mm 2 mps 743 mmHg 72%
    23:00 +29°C° 0 mm 2 mps 742 mmHg 72%
    Show more